Location: *
(23.5860°S, 65.4036°W)
Time: 22:15:54
(UTC+00:00)

Cosmos 1315 Rocket - Pass Details

Date: 25 August 2019
Orbit: 530 x 568 km, 81.2° (Epoch: 14 September)

Event Time Altitude Azimuth Distance (km) Brightness Sun altitude
Rises 23:02:46 0° 20° (NNE) 2,737 6.2 -13.1°
Reaches altitude 10° 23:05:16 10° 35° (NE) 1,844 5.2 -13.7°
Enters shadow 23:08:12 23° 80° (E) 1,210 4.0 -14.3°
